Regional Weather Roundup
Issued by NWS

Home | Current Version | Previous Version | Graphics & Text | Print | Product List | Glossary On
Versions: 1 2 3 4 5 6 7 8 9 10 11 12 13 14 15 16 17 18 19 20 21 22 23 24 25 26 27 28 29 30 31 32 33 34 35 36 37 38 39 40 41 42 43 44 45 46 47 48 49 50
000
ASUS43 KOAX 272002
RWRNE

WEATHER ROUNDUP FOR NEBRASKA
NATIONAL WEATHER SERVICE OMAHA NE
300 PM CDT THU AUG 27 2015

NOTES: SATELLITE DATA IS BEING USED TO AUGMENT CLOUD COVER ABOVE
       12000 FEET.
       "FAIR" INDICATES FEW OR NO CLOUDS BELOW 12,000 FEET WITH NO
       SIGNIFICANT WEATHER AND/OR OBSTRUCTIONS TO VISIBILITY.

  * THESE STATIONS DO NOT REPORT WEATHER SUCH AS RAIN...SNOW OR FOG.

NEZ001>004-019>022-054>056-272100-
NEBRASKA PANHANDLE

CITY           SKY/WX    TMP DP  RH WIND       PRES   REMARKS
SCOTTSBLUFF    MOSUNNY   86  55  34 N16G24    30.03S
ALLIANCE       SUNNY     85  57  38 N20G30    30.00F
CHADRON        PTSUNNY   77  55  46 N14       30.03R
KIMBALL        SUNNY     80  55  41 NW16G24   30.06S
SIDNEY         MOSUNNY   87  60  40 N18G29    30.01F
$$

NEZ057>060-069>072-079>082-272100-
SOUTHWEST NEBRASKA

CITY           SKY/WX    TMP DP  RH WIND       PRES   REMARKS
NORTH PLATTE   MOSUNNY   85  65  51 E6        29.88S
IMPERIAL       SUNNY     90  56  31 N16       29.90F
MCCOOK         MOSUNNY   92  55  28 W10       29.84F HX  90
$$

NEZ005>010-023>029-035>040-094-272100-
NORTH CENTRAL NEBRASKA

CITY           SKY/WX    TMP DP  RH WIND       PRES   REMARKS
AINSWORTH      PTSUNNY   81  69  67 NE10      29.92F
BROKEN BOW     LGT RAIN  79  70  74 SE9       29.90R
O`NEILL        PTSUNNY   83  69  64 SE10      29.91F
ORD            CLOUDY    80  69  69 SE15      29.87F
$$

NEZ041-046>049-061>064-073>077-083>087-272100-
SOUTH CENTRAL NEBRASKA

CITY           SKY/WX    TMP DP  RH WIND       PRES   REMARKS
GRAND ISLAND   CLOUDY    83  68  60 SE18G28   29.90F
AURORA         CLOUDY    84  69  60 S18G28    29.90F
HASTINGS       CLOUDY    83  70  64 SE18G26   29.89F
HEBRON         CLOUDY    85  66  52 S21G28    29.92F
HOLDREGE       CLOUDY    82  67  61 SE16      29.85F
KEARNEY *      CLOUDY    81  70  69 SE12      29.90R
YORK           CLOUDY    82  72  69 S18G24    29.92F
$$

NEZ011>018-030>034-042>045-272100-
NORTHEAST NEBRASKA

CITY           SKY/WX    TMP DP  RH WIND       PRES   REMARKS
NORFOLK        PTSUNNY   79  67  66 SE18G26   29.92R
ALBION         CLOUDY    79  67  66 S14G22    29.89F
BLAIR          SUNNY     77  65  66 S17G25    29.96F
COLUMBUS *     PTSUNNY   81  66  61 SE8G18    29.92R
FREMONT        PTSUNNY   79  67  66 SE16G22   29.94F
TEKAMAH        PTSUNNY   80  68  66 SE13G22   29.95F
$$

NEZ050>053-065>068-078-088>093-272100-
SOUTHEAST NEBRASKA

CITY           SKY/WX    TMP DP  RH WIND       PRES   REMARKS
LINCOLN        PTSUNNY   85  69  58 SE25G31   29.93F
OMAHA EPPLEY   PTSUNNY   81  66  60 S26G32    29.96F
BEATRICE       PTSUNNY   82  67  60 SE18      29.95S
FALLS CITY     SUNNY     80  67  64 S23G30    30.01F
NEBRASKA CITY  SUNNY     80  60  51 S21G26    29.99F
PLATTSMOUTH    SUNNY     78  64  61 SE18G29   29.98F
$$

NEZ044-045-051>053-067-272100-
OMAHA AREA

CITY           SKY/WX    TMP DP  RH WIND       PRES   REMARKS
OMAHA EPPLEY   PTSUNNY   81  66  60 S26G32    29.96F
BLAIR          SUNNY     77  65  66 S17G25    29.96F
FREMONT        PTSUNNY   79  67  66 SE16G22   29.94F
OFFUTT AFB     SUNNY     81  66  60 SE18      29.96F
PLATTSMOUTH    SUNNY     78  64  61 SE18G29   29.98F
WAHOO          FAIR      80  69  68 SE23G31   29.93F
$$




USA.gov is the U.S. government's official web portal to all federal, state and local government web resources and services.